RH
75 58 61 40 30 30 39 41 59 71 70 67 71 79 90 94 81 88 80 84 81 88 90 86 84 83 83 83 82 83 82 82 81 80 76 75 74 75 76 72 68 68 74 74 69 69 73 73 73
68 46 44 40 28 32 27 31 72 72 63 81 76 85 80 81 68 77 84 80 81 81 91 90 84 82 83 82 81 81 81 81 79 79 78 76 74 74 76 74 70 69 72 75 74 74 73 72 70
51 39 39 42 35 30 30 29 31 52 58 62 67 61 67 80 66 76 82 86 85 90 92 90 86 83 82 82 82 80 80 80 80 81 81 79 78 75 76 76 74 76 76 77 75 74 73 73 72
39 40 35 26 35 28 34 42 25 22 23 55 61 71 72 81 87 93 91 87 83 86 89 87 86 83 85 84 82 80 81 81 80 81 80 77 76 75 76 79 80 83 82 76 78 78 78 76 74
46 36 32 32 27 32 43 24 23 26 45 58 62 73 83 82 89 92 97 95 90 85 87 88 84 83 84 83 84 83 80 80 82 81 79 79 79 79 81 81 82 80 80 76 75 76 79 80 77
45 34 33 35 30 27 40 28 28 32 38 53 69 76 77 79 89 85 88 98 97 93 95 94 86 84 85 86 87 86 83 79 80 80 80 79 78 79 80 80 80 80 79 79 76 75 75 78 78
43 37 35 42 28 35 29 27 50 41 64 65 62 75 76 82 90 80 86 87 92 97 96 95 96 88 93 88 89 87 85 85 84 84 84 85 86 82 78 81 80 79 79 80 81 79 78 77 77
50 38 41 54 25 30 30 27 28 30 40 40 67 67 72 74 86 76 77 81 83 87 90 87 90 93 98 96 91 90 89 91 90 90 89 90 88 87 86 88 86 83 82 84 83 81 82 82 84
43 36 40 31 27 28 34 30 26 28 29 51 65 74 66 85 76 70 65 68 76 79 84 85 88 92 90 94 96 96 91 89 89 91 92 94 95 93 83 87 90 89 85 82 80 79 83 88 92
45 39 33 28 31 34 36 35 33 32 33 50 75 74 74 76 73 74 74 72 72 71 73 78 80 83 88 83 93 98 91 91 86 90 95 90 92 96 86 92 95 91 87 86 84 82 85 93 97
43 30 35 31 36 37 34 35 36 33 32 31 54 73 72 73 70 69 68 68 68 72 69 66 65 62 60 68 85 82 71 81 90 80 89 86 94 93 98 98 96 96 82 91 83 92 97 96 97
39 36 36 34 40 37 35 37 36 34 28 29 33 65 69 69 69 68 69 67 67 70 72 65 59 56 60 66 62 64 61 67 91 85 76 69 82 78 78 84 85 89 87 80 79 76 80 93 94
42 38 38 37 39 38 35 37 36 35 30 30 47 63 69 69 67 68 68 68 70 69 68 67 65 63 60 63 68 67 67 68 65 64 73 76 71 79 77 78 85 91 92 93 89 88 85 82 86
44 43 41 39 38 38 40 40 38 31 31 33 58 65 67 67 67 76 73 72 70 70 66 70 68 67 66 72 70 72 72 73 75 75 73 71 76 77 79 78 80 80 81 83 91 90 91 94 95
44 40 38 37 42 40 39 34 37 34 31 32 54 62 64 63 67 71 70 73 73 68 68 69 70 68 70 73 76 79 76 75 78 78 75 76 78 80 82 85 85 85 82 79 88 87 88 93 91
44 38 38 29 45 44 33 42 27 29 34 35 51 60 61 62 61 69 72 73 73 70 68 67 60 70 72 75 79 79 81 81 82 81 82 79 78 82 86 87 88 86 83 83 93 90 86 88 89
51 56 44 34 44 44 39 39 28 33 34 34 42 56 59 63 60 67 72 77 70 69 72 71 70 72 77 80 85 88 86 88 86 85 83 80 78 80 87 88 89 86 86 87 94 94 94 90 88
47 46 41 39 32 44 46 40 35 32 32 34 36 43 55 62 57 59 72 76 70 72 72 72 73 75 81 85 86 88 89 90 89 86 80 79 80 78 86 87 85 86 87 87 88 92 94 94 94
45 47 45 38 30 39 40 40 34 36 39 40 38 36 47 60 55 59 72 73 71 74 74 72 75 81 82 82 85 88 92 92 91 85 76 76 77 77 81 85 84 85 88 91 88 91 93 92 92
44 46 48 39 39 44 44 44 31 33 38 36 34 38 36 59 58 63 72 71 70 74 73 75 74 76 78 84 88 89 94 93 89 85 83 80 79 80 77 84 86 85 87 86 88 90 92 94 90
48 48 49 50 51 45 49 43 33 35 35 31 32 34 34 50 56 64 66 68 75 74 76 76 76 78 83 86 90 92 88 86 86 89 90 88 81 82 82 85 89 92 92 94 94 94 93 96 91
54 51 54 54 64 62 44 58 42 37 35 32 38 43 42 54 53 60 62 66 68 76 75 77 80 82 82 85 84 84 87 87 93 94 93 92 87 86 84 85 87 90 93 93 93 87 95 96 97
48 53 55 61 76 80 63 86 48 36 34 36 40 45 45 61 56 60 60 61 69 76 80 83 83 82 84 81 83 87 90 95 96 95 92 90 90 86 83 84 86 89 92 92 92 92 92 95 97
50 52 60 86 86 87 73 63 48 38 42 42 45 50 51 55 61 61 60 64 78 82 87 88 85 86 82 82 84 86 91 95 95 93 94 94 92 88 83 81 85 87 90 93 94 93 92 92 93
52 58 81 80 87 80 61 67 50 43 47 51 54 57 59 61 65 67 71 73 78 84 92 89 84 85 82 81 83 87 91 91 89 91 93 91 92 89 89 85 89 92 92 90 91 92 93 91 83
66 50 80 69 83 85 64 65 45 48 51 56 62 63 67 71 68 72 74 73 77 82 87 87 83 83 80 78 83 86 88 91 92 90 93 93 93 91 87 89 91 91 90 90 91 94 92 87 90
62 76 59 70 81 92 70 54 37 55 48 52 63 68 77 81 79 78 82 81 81 86 88 82 81 81 78 76 80 82 87 88 88 89 90 92 90 76 89 90 91 91 90 90 90 94 93 94 85
59 52 72 80 79 77 67 69 61 50 50 51 63 75 80 90 92 93 90 86 84 84 87 82 79 79 76 77 77 81 84 82 87 88 89 86 88 86 90 90 90 89 88 89 91 94 94 89 87
75 74 71 71 76 84 87 67 52 50 52 55 70 77 84 91 95 96 93 88 85 88 88 85 80 80 79 79 81 83 82 82 86 87 90 89 83 80 74 85 86 84 89 92 94 94 92 87 89
68 64 65 80 79 92 90 73 45 48 50 54 61 70 84 90 94 94 91 89 88 87 87 81 80 81 80 82 84 85 82 82 87 87 90 87 86 80 71 69 71 81 93 94 95 96 94 89 88
Wind_Speed
5 4 3 6 6 7 2 2 1 3 3 3 3 6 6 3 2 3 5 5 5 7 5 8 9 10 11 13 12 11 10 9 9 11 13 13 11 10 9 11 11 10 10 12 11 11 10 10 10
4 2 5 3 7 5 5 4 1 2 2 5 6 3 4 3 2 1 5 10 9 7 2 5 12 11 12 13 12 11 11 10 10 11 11 12 10 10 10 10 10 9 10 10 10 9 8 8 9
1 4 5 6 4 4 3 3 2 3 3 2 3 6 2 1 3 3 3 5 4 4 3 6 11 13 13 13 13 12 11 11 11 10 10 10 11 9 9 9 9 9 9 9 9 8 7 7 8
2 5 5 7 2 0 2 2 3 5 4 3 3 5 2 1 3 4 9 8 7 5 4 7 10 12 13 12 12 12 12 11 12 11 10 10 9 8 7 8 8 8 8 8 7 6 6 5 6
5 4 5 5 1 0 1 4 4 2 3 5 3 3 1 2 4 5 7 6 3 5 3 7 11 10 11 11 12 12 12 11 11 11 10 10 9 9 8 9 9 8 7 7 7 5 4 3 4
5 3 5 3 2 2 3 3 1 1 2 3 5 2 3 2 3 4 4 4 5 9 7 9 8 7 7 9 10 10 10 11 10 10 10 10 9 8 8 8 8 8 7 6 6 5 4 2 1
6 5 4 4 3 2 2 5 1 2 1 1 6 4 2 2 1 3 5 5 5 5 7 4 7 5 3 5 8 10 8 7 7 6 6 7 7 6 6 5 5 6 6 6 5 5 4 2 0
5 5 3 2 3 4 2 3 1 3 2 1 4 3 4 4 4 4 5 6 6 5 5 5 4 4 4 3 7 5 7 9 9 8 6 6 5 6 7 6 3 2 3 4 4 3 3 2 1
3 6 1 3 5 3 1 1 1 1 0 2 3 0 4 7 6 4 3 4 3 4 5 5 3 3 3 5 6 9 10 9 9 7 7 5 4 4 6 7 7 7 6 4 1 1 1 1 0
5 4 6 2 2 2 2 0 2 1 1 1 1 3 3 5 5 7 5 3 2 2 2 3 4 3 4 4 5 4 5 4 4 3 4 3 4 3 4 4 7 7 7 4 5 4 5 4 2
2 3 2 3 3 2 2 3 2 2 5 7 8 8 6 5 5 7 6 5 4 2 3 3 3 4 5 4 3 3 3 3 4 5 4 4 4 3 3 3 3 3 6 4 4 4 3 3 2
3 1 1 3 2 2 3 2 4 5 7 2 8 10 7 9 8 7 8 7 6 4 2 3 4 5 6 4 4 4 4 3 4 5 4 4 4 4 4 3 4 4 3 3 3 2 5 4 5
1 3 5 3 6 5 4 6 6 8 10 6 4 11 11 9 8 6 6 5 6 6 4 4 5 5 5 6 4 5 4 4 4 4 5 4 4 4 4 4 4 4 3 3 3 4 4 5 4
3 4 8 6 5 4 4 3 3 6 4 7 6 10 8 8 8 5 6 7 7 6 6 4 6 5 5 5 6 4 4 4 4 4 4 6 4 4 4 4 4 4 4 4 4 4 4 3 4
2 5 6 1 2 2 1 6 8 7 7 5 7 7 7 8 6 9 9 7 7 5 7 6 6 5 6 6 5 4 4 5 4 4 5 6 5 5 4 4 4 3 4 5 4 4 3 4 3
3 4 6 3 2 0 3 9 8 5 5 7 7 7 7 7 8 7 6 5 6 6 7 6 5 6 6 6 4 4 4 4 4 4 4 6 6 6 5 4 4 4 4 4 3 3 3 3 3
6 2 2 8 2 1 2 8 6 1 5 8 8 8 8 7 5 5 6 7 7 7 7 7 6 7 7 6 5 5 6 5 4 4 4 5 6 6 5 4 4 4 4 4 3 2 2 2 3
4 4 3 5 4 2 5 18 12 9 6 10 8 7 7 8 10 8 8 6 6 7 6 7 6 7 7 5 5 4 4 4 4 4 4 6 5 6 5 4 5 4 4 4 3 3 2 1 2
2 2 6 5 6 3 7 15 18 9 7 9 10 9 9 10 7 8 8 8 7 6 7 6 7 6 5 3 3 3 3 2 3 4 5 5 4 5 5 4 4 4 4 4 4 3 4 3 4
2 4 6 7 2 2 8 13 24 9 7 8 9 10 11 6 8 9 10 9 10 9 7 6 5 5 3 3 3 3 2 2 3 2 4 5 5 5 5 4 4 4 3 4 5 5 2 2 4
2 3 4 4 7 4 6 8 6 4 4 4 5 9 8 15 13 12 13 11 7 10 9 8 7 6 3 5 4 4 3 3 3 3 3 4 5 5 5 5 5 5 4 4 4 4 5 2 2
4 2 2 5 5 2 5 7 9 7 10 7 9 11 6 9 10 13 14 12 12 8 6 7 7 6 4 4 3 4 3 2 1 1 2 4 6 5 5 5 5 5 3 4 3 3 2 2 2
7 1 3 0 1 4 4 4 10 5 6 8 10 11 9 4 11 15 16 13 9 8 7 6 7 6 5 5 5 4 5 3 2 2 4 4 4 5 4 5 5 4 3 3 3 3 3 1 1
3 3 4 4 3 3 3 5 8 2 3 8 6 11 9 2 5 6 7 8 7 7 6 6 7 5 5 6 6 6 7 5 4 2 2 2 2 3 4 3 4 4 4 4 3 3 3 2 1
3 4 4 7 5 5 1 1 10 5 3 2 6 9 9 3 6 8 11 11 11 10 8 7 7 6 5 6 6 6 6 6 5 3 1 1 2 2 4 4 4 3 4 5 4 4 4 4 3
1 3 5 6 2 5 3 7 5 2 5 2 3 5 6 4 4 5 6 9 10 10 9 8 8 7 6 5 5 4 5 4 3 2 1 1 1 1 3 4 4 4 5 5 5 3 4 5 4
3 2 2 2 1 3 4 8 8 2 4 6 6 7 8 7 2 7 7 8 9 10 9 10 9 6 6 6 5 5 4 4 4 3 1 0 1 2 3 4 4 4 4 4 4 3 5 5 5
3 5 3 2 1 5 7 6 7 3 4 5 6 6 6 5 4 5 6 8 7 7 6 7 7 8 6 6 5 4 4 4 3 3 2 2 2 2 4 5 4 5 5 5 5 4 5 5 4
2 2 2 3 5 6 4 7 6 5 4 3 4 2 1 3 4 3 4 5 8 6 6 7 7 7 6 5 5 5 4 3 4 3 2 2 1 1 3 3 4 4 5 5 5 5 6 5 5
3 8 7 5 5 3 2 9 2 6 4 2 5 3 2 3 4 5 7 5 6 8 7 8 7 6 5 5 5 4 4 4 4 3 2 3 4 4 3 4 5 6 5 5 6 6 6 6 7
Wind_Direction
340 11 73 40 52 63 15 13 295 13 7 324 312 93 108 76 7 271 322 298 186 149 166 154 145 142 151 141 138 135 131 129 139 140 130 122 117 113 113 107 106 101 88 99 96 88 82 78 71
337 9 44 81 77 58 286 289 50 273 32 132 103 97 50 87 327 4 352 344 148 139 155 137 144 140 139 137 135 136 136 137 136 139 135 128 126 123 118 111 115 111 102 98 98 96 86 75 68
223 48 77 86 105 145 193 244 263 281 312 182 94 47 83 192 309 301 302 309 129 143 164 142 144 140 137 133 133 135 134 130 131 131 133 128 121 122 118 122 115 119 112 109 109 105 94 78 68
46 16 39 77 77 253 218 294 295 327 344 42 104 63 50 291 303 304 302 286 144 152 137 135 143 144 139 136 136 133 133 133 130 131 130 134 128 124 129 132 125 126 125 122 121 117 103 81 63
32 51 63 87 330 221 280 289 318 340 341 1 9 171 142 335 325 354 346 342 120 154 162 148 145 141 136 136 139 139 138 137 133 136 139 137 130 127 131 142 144 147 145 139 137 131 119 89 49
34 88 62 134 222 222 259 256 194 12 320 339 73 127 241 320 345 14 8 3 46 98 124 306 138 123 136 149 142 140 140 144 143 142 143 142 140 139 142 147 151 156 157 156 152 148 144 135 47
101 73 160 150 228 268 260 328 76 210 319 23 143 145 276 257 280 60 35 38 54 99 120 132 107 114 354 254 146 139 145 146 147 142 139 131 132 142 141 139 154 164 167 168 170 168 163 155 113
99 90 115 206 190 230 283 321 195 205 259 95 137 197 258 206 157 86 51 41 32 59 71 77 73 107 159 210 56 87 121 96 91 90 95 108 115 106 109 106 71 179 189 177 177 197 186 189 186
106 61 166 208 165 225 313 11 314 315 317 58 6 357 304 130 127 90 64 30 43 36 40 66 26 44 71 74 60 75 71 74 85 91 90 70 82 80 60 54 58 62 62 45 44 149 272 227 251
78 107 215 213 199 230 293 259 307 309 245 291 9 27 94 136 149 140 138 130 64 80 24 86 88 24 22 9 50 82 83 52 33 98 112 104 71 69 77 41 28 38 32 34 43 44 57 33 27
155 175 219 248 207 206 233 260 234 218 264 212 199 183 183 173 166 153 155 155 160 58 8 31 84 86 89 69 67 56 63 58 55 23 47 73 75 56 55 42 27 46 44 20 31 45 54 46 30
349 244 249 277 261 240 256 316 287 211 231 231 213 178 168 175 186 178 168 160 147 122 68 24 52 82 72 84 81 77 63 50 39 54 30 63 64 53 53 55 50 52 41 54 26 26 52 37 36
19 325 316 292 306 274 314 257 248 258 249 268 148 163 188 183 185 186 166 151 144 137 108 50 60 67 88 86 84 80 75 64 52 55 47 49 65 62 50 40 41 37 30 31 36 40 36 29 11
309 300 288 303 296 253 247 298 7 282 316 237 170 195 198 194 183 138 166 167 163 142 128 118 100 93 79 81 92 89 85 85 78 57 55 60 67 74 63 49 38 32 21 22 32 46 39 38 22
319 327 317 237 321 280 48 310 238 285 317 268 216 210 204 214 182 191 183 175 164 152 137 131 117 105 95 92 86 90 88 84 63 65 60 61 58 62 70 61 41 21 19 27 34 31 34 26 9
28 51 3 312 100 309 111 260 271 315 172 218 224 222 212 215 207 200 180 163 158 136 137 133 115 111 100 93 79 74 82 83 83 69 58 60 65 62 59 54 36 11 28 30 38 29 22 21 8
3 272 269 315 214 277 173 273 267 349 207 229 224 214 212 209 206 191 173 167 163 150 141 126 114 108 101 85 79 60 58 57 57 52 52 51 54 56 65 53 32 34 43 34 17 29 41 4 344
263 305 265 248 309 313 277 270 271 273 247 249 243 242 226 205 206 179 168 166 156 145 135 124 115 115 103 92 83 67 64 46 43 51 45 40 40 53 62 51 40 34 40 26 21 25 337 333 343
330 304 276 254 271 269 255 274 278 252 266 255 245 231 224 220 191 166 161 156 148 146 141 145 134 141 129 109 104 77 93 65 59 46 46 54 52 52 49 45 38 34 51 39 25 6 10 340 6
235 280 262 285 244 236 303 290 280 270 241 234 245 240 227 180 166 163 161 164 171 160 154 146 146 152 150 126 134 127 141 96 98 57 44 41 56 55 72 64 54 44 47 37 34 35 355 327 22
274 242 320 279 325 286 312 293 319 322 339 352 325 269 233 197 175 170 176 174 161 165 164 156 150 147 140 129 112 86 74 52 34 23 30 10 45 53 66 58 54 43 41 42 45 36 44 351 324
297 201 256 302 23 288 39 282 307 338 327 357 352 347 268 191 174 166 173 177 177 172 147 139 140 138 127 138 115 121 126 121 77 46 17 32 36 39 47 49 55 48 32 33 8 38 56 36 354
227 331 301 337 99 25 335 68 267 340 328 341 342 347 340 220 173 180 181 176 162 142 145 141 132 121 112 102 111 110 96 90 81 60 51 21 17 32 37 44 33 24 18 359 353 5 32 93 40
334 347 42 57 99 20 235 130 282 294 288 313 338 339 338 236 191 165 146 138 130 125 123 123 119 102 104 103 105 114 121 123 108 71 49 11 352 354 12 39 28 17 8 358 344 325 296 273 148
84 59 333 345 8 227 112 71 254 303 320 307 313 324 332 323 169 158 156 159 152 145 135 131 124 120 119 113 112 120 123 123 120 121 121 35 350 6 9 22 13 6 355 351 348 336 316 287 291
101 145 159 232 259 277 316 244 253 237 292 323 351 314 338 15 146 148 159 156 153 145 143 136 136 134 134 126 120 122 131 131 123 136 139 4 360 66 18 14 17 2 350 342 343 334 322 309 303
153 189 176 97 100 30 250 291 306 298 316 348 5 3 349 355 156 150 138 143 145 147 152 150 142 134 137 133 130 129 133 135 139 122 96 74 77 63 27 16 359 341 333 322 316 310 306 303 281
165 162 76 13 234 265 284 273 241 266 268 327 360 357 351 17 78 116 131 140 144 149 140 130 132 141 144 134 136 129 133 129 135 111 63 66 103 55 29 2 344 330 324 324 315 301 292 285 289
145 227 84 129 156 184 282 257 214 217 213 254 292 308 311 109 129 116 130 138 136 127 138 136 134 136 139 134 132 128 122 119 111 93 55 344 297 26 20 327 314 326 334 324 316 310 295 296 299
211 203 165 159 228 224 217 273 267 226 218 218 254 276 240 163 171 168 152 138 146 144 147 146 139 137 140 138 127 123 110 99 96 70 35 31 21 354 6 331 326 343 327 314 307 300 299 302 297